HB9Y1 Weather Reports


time (UTC)temp
C
wind
direction
speed
KPH
gust
KPH
rain 1hr
cm
rain 24hr
cm
rain mn
cm
humidity
%
barometer
mb
20260503035323 6 64 3.2 8.0 0.00 0.00 0.00 66 1017.7
20260503034331 6 0.0 0.0 0.00 0.00 0.00 66 1017.7
20260503033343 6 65 1.6 8.0 0.00 0.00 0.00 64 1017.7
20260503032331 6 336 1.6 12.9 0.00 0.00 0.00 66 1017.9
20260503031323 6 0.0 0.0 0.00 0.00 0.00 67 1018.1
20260503030351 6 76 6.4 12.9 0.00 0.00 0.00 70 1018.1
20260503025343 6 0.0 0.0 0.00 0.00 0.00 67 1018.1
20260503024345 6 0.0 0.0 0.00 0.00 0.00 64 1018.5
20260503023343 6 0.0 0.0 0.00 0.00 0.00 69 1018.5
20260503022331 6 0.0 0.0 0.00 0.00 0.00 68 1018.5
20260503021323 6 0.0 0.0 0.00 0.00 0.00 67 1018.5
20260503020331 6 0.0 0.0 0.00 0.00 0.00 69 1018.5
20260503015323 6 0.0 0.0 0.00 0.00 0.00 68 1018.5
20260503014351 6 73 8.0 12.9 0.00 0.00 0.00 68 1018.7
20260503013323 6 0.0 0.0 0.00 0.00 0.00 66 1018.9
20260503012325 7 0.0 0.0 0.00 0.00 0.00 66 1018.9
20260503011323 7 0.0 0.0 0.00 0.00 0.00 67 1018.7
20260503010331 7 84 8.0 27.4 0.00 0.00 0.00 67 1019.3
20260503005323 7 49 4.8 8.0 0.00 0.00 0.00 69 1019.3
20260503004331 7 0.0 0.0 0.00 0.00 0.00 69 1019.3
20260503003323 7 102 3.2 12.9 0.00 0.00 0.00 68 1019.3
20260503002331 7 0.0 0.0 0.00 0.00 0.00 68 1019.5
20260503001323 7 124 3.2 3.2 0.00 0.00 0.00 68 1019.7
20260503000325 7 91 12.9 24.1 0.00 0.00 0.00 63 1019.7
20260502235343 7 134 3.2 3.2 0.00 0.00 0.00 67 1019.7
20260502234351 7 85 12.9 20.9 0.00 0.00 0.00 67 1019.7
20260502233322 7 98 3.2 12.9 0.00 0.00 0.00 68 1020.1
20260502232331 7 0.0 0.0 0.00 0.00 0.00 69 1020.1
20260502231323 8 136 6.4 8.0 0.00 0.00 0.00 68 1020.1
20260502230351 8 129 8.0 12.9 0.00 0.00 0.00 71 1020.1
20260502225323 8 106 19.3 24.1 0.00 0.00 0.00 69 1020.1
20260502224325 8 99 20.9 27.4 0.00 0.00 0.00 69 1020.4
20260502223323 8 91 17.7 24.1 0.00 0.00 0.00 72 1020.3
20260502222331 8 94 14.5 20.9 0.00 0.00 0.00 72 1020.1
20260502221323 8 102 14.5 20.9 0.00 0.00 0.00 72 1020.2
20260502220330 8 109 14.5 27.4 0.00 0.00 0.00 71 1020.5
20260502215323 8 94 14.5 20.9 0.00 0.00 0.00 70 1020.1
20260502214331 8 100 17.7 24.1 0.00 0.00 0.00 69 1020.3
20260502213323 8 105 14.5 20.9 0.00 0.00 0.00 69 1020.2
20260502212325 8 104 20.9 32.2 0.00 0.00 0.00 69 1020.5
20260502211323 8 105 17.7 24.1 0.00 0.00 0.00 69 1020.3
20260502210351 8 107 16.1 20.9 0.00 0.00 0.00 71 1020.5
20260502205323 8 105 17.7 20.9 0.00 0.00 0.00 70 1020.5
20260502204331 8 99 14.5 20.9 0.00 0.00 0.00 69 1020.5
20260502203343 8 111 12.9 20.9 0.00 0.00 0.00 71 1020.5
20260502202330 8 109 8.0 12.9 0.00 0.00 0.00 71 1020.5
20260502201323 8 83 11.3 20.9 0.00 0.00 0.00 71 1020.5
20260502200405 8 123 6.4 16.1 0.00 0.00 0.00 72 1020.5
20260502195322 9 99 11.3 20.9 0.00 0.00 0.00 72 1020.5
20260502194331 9 101 12.9 27.4 0.00 0.00 0.00 72 1020.5
20260502193342 10 104 14.5 20.9 0.00 0.00 0.00 71 1020.5
20260502192330 10 118 9.7 16.1 0.00 0.00 0.00 71 1020.5
20260502191322 10 112 16.1 24.1 0.00 0.00 0.00 69 1020.5
20260502190330 10 110 14.5 20.9 0.00 0.00 0.00 68 1020.3
20260502185343 10 85 16.1 20.9 0.00 0.00 0.00 69 1020.1
20260502184325 10 103 14.5 24.1 0.00 0.00 0.00 70 1020.2
20260502183323 10 92 16.1 20.9 0.00 0.00 0.00 70 1020.1
20260502182330 10 89 9.7 16.1 0.00 0.00 0.00 70 1020.1
20260502181322 10 114 11.3 12.9 0.00 0.00 0.00 70 1020.1
20260502180330 11 105 11.3 16.1 0.00 0.00 0.00 69 1019.9
20260502170331 12 88 16.1 37.0 0.00 0.00 0.00 63 1019.7
20260502164330 13 79 19.3 27.4 0.00 0.00 0.00 56 1019.7
20260502163317 13 104 16.1 24.1 0.00 0.00 0.00 57 1019.7
20260502162350 13 80 11.3 16.1 0.00 0.00 0.00 55 1019.9
20260502161322 13 94 9.7 16.1 0.00 0.00 0.00 55 1020.1
20260502160324 13 98 9.7 16.1 0.00 0.00 0.00 55 1020.1
20260502152330 14 108 16.1 20.9 0.00 0.00 0.00 53 1020.1
20260502151317 14 100 16.1 27.4 0.00 0.00 0.00 53 1020.1
20260502150330 14 120 16.1 27.4 0.00 0.00 0.00 54 1020.3
20260502130330 14 119 17.7 37.0 0.00 0.00 0.00 56 1020.9
20260502123317 13 151 20.9 27.4 0.00 0.00 0.00 57 1020.9
20260502122330 13 113 20.9 32.2 0.00 0.00 0.00 55 1021.3
20260502121322 13 156 16.1 27.4 0.00 0.00 0.00 55 1021.3
20260502120325 13 130 9.7 16.1 0.00 0.00 0.00 57 1021.7
20260502115322 13 109 19.3 32.2 0.00 0.00 0.00 57 1021.5
20260502114350 13 121 19.3 27.4 0.00 0.00 0.00 58 1021.7
20260502113322 13 137 17.7 24.1 0.00 0.00 0.00 59 1021.7
20260502112330 13 152 14.5 24.1 0.00 0.00 0.00 60 1021.7
20260502111317 13 150 12.9 20.9 0.00 0.00 0.00 60 1021.7
20260502110330 13 119 20.9 27.4 0.00 0.00 0.00 56 1021.7
20260502105322 13 113 17.7 27.4 0.00 0.00 0.00 57 1021.7
20260502104345 13 128 12.9 20.9 0.00 0.00 0.00 55 1021.8
20260502103322 13 91 12.9 20.9 0.00 0.00 0.00 55 1022.1
20260502102330 14 105 12.9 24.1 0.00 0.00 0.00 54 1022.1
20260502101322 13 128 12.9 16.1 0.00 0.00 0.00 51 1022.1
20260502100510 13 144 14.5 20.9 0.00 0.00 0.00 51 1022.1
20260502091322 13 208 6.4 12.9 0.00 0.00 0.00 56 1022.5
20260502090330 13 143 3.2 8.0 0.00 0.00 0.00 52 1022.5
20260502071317 12 164 0.0 3.2 0.00 0.00 0.00 56 1023.3
20260502070330 12 0.0 0.0 0.00 0.00 0.00 56 1022.9
20260502065322 11 0.0 0.0 0.00 0.00 0.00 52 1023.2
20260502064345 10 0.0 0.0 0.00 0.00 0.00 55 1023.2
20260502063322 9 0.0 0.0 0.00 0.00 0.00 54 1023.1
20260502062330 8 0.0 0.0 0.00 0.00 0.00 59 1022.9
20260502061342 7 0.0 0.0 0.00 0.00 0.00 63 1022.9
20260502060330 7 0.0 0.0 0.00 0.00 0.00 63 1022.9
20260502055317 7 0.0 0.0 0.00 0.00 0.00 62 1022.9
20260502054350 7 0.0 0.0 0.00 0.00 0.00 64 1023.2
20260502053321 7 0.0 0.0 0.00 0.00 0.00 65 1023.3
20260502052325 7 0.0 0.0 0.00 0.00 0.00 64 1023.2
20260502051322 7 0.0 0.0 0.00 0.00 0.00 65 1023.1
20260502050330 7 0.0 0.0 0.00 0.00 0.00 65 1022.9
20260502045322 7 0.0 0.0 0.00 0.00 0.00 64 1023.3
20260502044330 7 0.0 0.0 0.00 0.00 0.00 64 1022.9
20260502043317 6 0.0 0.0 0.00 0.00 0.00 64 1022.9
20260502042330 6 0.0 0.0 0.00 0.00 0.00 65 1022.9
20260502041342 6 0.0 0.0 0.00 0.00 0.00 64 1023.2
20260502040325 7 0.0 0.0 0.00 0.00 0.00 63 1023.0